Hourly Data Report for October 06, 2013

All times are specified in Local Standard Time (LST). Add 1 hour to adjust for Daylight Saving Time where and when it is observed.

CHARLOTTETOWN A
PRINCE EDWARD ISLAND

46°17'21.000" N
63°07'09.000" W
48.50 m
8300301
71706
YYG

Download Data

Hourly Data (October 2013)
Hourly Data Report for October 6, 2013
Temp Definition
°C
Dew Point Temp Definition
°C
Rel Hum Definition
%
Wind Dir Definition
10's deg

Wind Spd Definition
km/h
Visibility Definition
km
Stn Press Definition
kPa
Hmdx Definition


Wind Chill Definition


Weather Definition


TIME
00:00 Legend Double Dagger 9.1 2.2 62 32 15 24.1 101.19     LegendNANA
01:00
02:00 Legend Double Dagger 6.7 2.4 74 27 13 24.1 101.23     Mainly Clear
03:00 Legend Double Dagger 5.7 2.4 79 27 12 24.1 101.25     LegendNANA
04:00 Legend Double Dagger 6.5 2.8 77 29 9 24.1 101.31     LegendNANA
05:00 Legend Double Dagger 6.3 3.6 83 27 13 24.1 101.35     Mostly Cloudy
06:00 Legend Double Dagger 6.9 4.1 82 28 9 24.1 101.40     LegendNANA
07:00 Legend Double Dagger 8.2 4.2 76 31 8 24.1 101.49     LegendNANA
08:00 Legend Double Dagger 9.3 4.5 72 33 18 24.1 101.59     Mostly Cloudy
09:00 Legend Double Dagger 10.1 4.3 67 33 19 24.1 101.64     LegendNANA
10:00 Legend Double Dagger 10.5 4.0 64 34 20 24.1 101.69     LegendNANA
11:00 Legend Double Dagger 10.9 4.0 62 33 18 24.1 101.76     Mostly Cloudy
12:00 Legend Double Dagger 10.4 3.7 63 33 20 24.1 101.78     LegendNANA
13:00 Legend Double Dagger 10.6 4.1 64 36 17 24.1 101.78     LegendNANA
14:00 Legend Double Dagger 11.4 5.7 68 36 13 24.1 101.82     Mainly Clear
15:00 Legend Double Dagger 11.1 4.6 64 33 15 24.1 101.88     LegendNANA
16:00 Legend Double Dagger 10.1 4.5 68 33 10 24.1 101.91     LegendNANA
17:00 Legend Double Dagger 9.1 4.5 73 35 9 24.1 101.96     Mainly Clear
18:00 Legend Double Dagger 7.1 4.4 83 30 5 24.1 102.00     LegendNANA
19:00 Legend Double Dagger 6.0 3.8 86 30 4 24.1 102.05     LegendNANA
20:00 Legend Double Dagger 4.5 3.2 91 26 7 24.1 102.10     Mainly Clear
21:00 Legend Double Dagger 3.5 3.1 97 32 1 24.1 102.09     LegendNANA
22:00 Legend Double Dagger 4.0 2.7 91 14 4 24.1 102.12     LegendNANA
23:00 Legend Double Dagger 1.7 1.3 97 10 3 24.1 102.11     Mainly Clear

Notes on Data Quality.

Legend

  • E = Estimated
  • M = Missing
  • NA = Not Available
  • ‡ = Partner data that is not subject to review by the National Climate Archives
Date modified: